Time,TemperatureF,DewpointF,PressureIn,WindDirection,WindDirectionDegrees,WindSpeedMPH,WindSpeedGustMPH,Humidity,HourlyPrecipIn,Conditions,Clouds,dailyrainin,SoftwareType,DateUTC
2013-07-05 00:01:00,71.5,59.6,29.80,ESE,115,0.0,4.0,66,0.00,,SKC,0.00,VWS V14.01,2013-07-05 05:01:00,
2013-07-05 00:06:00,71.5,59.6,29.80,ESE,114,5.0,5.0,66,0.00,,SKC,0.00,VWS V14.01,2013-07-05 05:06:00,
2013-07-05 00:11:00,71.5,59.1,29.79,ESE,110,2.0,6.0,65,0.00,,SKC,0.00,VWS V14.01,2013-07-05 05:11:00,
2013-07-05 00:16:00,71.4,59.0,29.79,ESE,108,0.0,6.0,65,0.00,,SKC,0.00,VWS V14.01,2013-07-05 05:16:00,
2013-07-05 00:21:00,71.4,59.5,29.79,ESE,108,0.0,6.0,66,0.00,,SKC,0.00,VWS V14.01,2013-07-05 05:21:00,
2013-07-05 00:26:00,71.3,59.4,29.79,ESE,108,0.0,6.0,66,0.00,,SKC,0.00,VWS V14.01,2013-07-05 05:26:00,
2013-07-05 00:31:00,71.3,59.4,29.79,ESE,107,0.0,2.0,66,0.00,,SKC,0.00,VWS V14.01,2013-07-05 05:31:00,
2013-07-05 00:36:00,71.3,59.4,29.79,ESE,123,0.0,5.0,66,0.00,,SKC,0.00,VWS V14.01,2013-07-05 05:36:00,
2013-07-05 00:41:00,71.3,58.9,29.79,ESE,123,0.0,5.0,65,0.00,,SKC,0.00,VWS V14.01,2013-07-05 05:41:00,
2013-07-05 00:46:00,71.3,58.9,29.79,ESE,123,0.0,5.0,65,0.00,,SKC,0.00,VWS V14.01,2013-07-05 05:46:00,
2013-07-05 00:51:00,71.3,58.9,29.79,ESE,123,2.0,5.0,65,0.00,,SKC,0.00,VWS V14.01,2013-07-05 05:51:00,
2013-07-05 00:56:00,71.2,58.8,29.79,ESE,123,0.0,5.0,65,0.00,,SKC,0.00,VWS V14.01,2013-07-05 05:56:00,
2013-07-05 01:01:00,71.2,58.8,29.80,ESE,123,0.0,1.0,65,0.00,,SKC,0.00,VWS V14.01,2013-07-05 06:01:00,
2013-07-05 01:06:00,71.0,58.7,29.80,ESE,123,0.0,1.0,65,0.00,,SKC,0.00,VWS V14.01,2013-07-05 06:06:00,
2013-07-05 01:11:00,70.9,58.6,29.80,ESE,123,0.0,1.0,65,0.00,,SKC,0.00,VWS V14.01,2013-07-05 06:11:00,
2013-07-05 01:16:00,70.8,58.9,29.80,ESE,123,0.0,1.0,66,0.00,,SKC,0.00,VWS V14.01,2013-07-05 06:16:00,
2013-07-05 01:21:00,70.6,58.7,29.80,ESE,123,0.0,1.0,66,0.00,,SKC,0.00,VWS V14.01,2013-07-05 06:21:00,
2013-07-05 01:26:00,70.4,58.5,29.81,ESE,123,0.0,1.0,66,0.00,,SKC,0.00,VWS V14.01,2013-07-05 06:26:00,
2013-07-05 01:31:00,70.1,58.7,29.80,ESE,123,0.0,1.0,67,0.00,,SKC,0.00,VWS V14.01,2013-07-05 06:31:00,
2013-07-05 01:36:00,69.9,58.5,29.80,ESE,123,0.0,2.0,67,0.00,,SKC,0.00,VWS V14.01,2013-07-05 06:36:00,
2013-07-05 01:41:00,69.7,58.3,29.80,ESE,123,0.0,2.0,67,0.00,,SKC,0.00,VWS V14.01,2013-07-05 06:41:00,
2013-07-05 01:46:00,69.6,58.6,29.80,ESE,123,0.0,2.0,68,0.00,,SKC,0.00,VWS V14.01,2013-07-05 06:46:00,
2013-07-05 01:51:00,69.4,58.4,29.80,ESE,123,0.0,4.0,68,0.00,,SKC,0.00,VWS V14.01,2013-07-05 06:51:00,
2013-07-05 01:56:00,69.3,58.7,29.80,ESE,119,0.0,5.0,69,0.00,,SKC,0.00,VWS V14.01,2013-07-05 06:56:00,
2013-07-05 02:01:00,69.2,58.6,29.80,ESE,119,0.0,1.0,69,0.00,,SKC,0.00,VWS V14.01,2013-07-05 07:01:00,
2013-07-05 02:06:00,69.0,58.4,29.80,ESE,118,0.0,2.0,69,0.00,,SKC,0.00,VWS V14.01,2013-07-05 07:06:00,
2013-07-05 02:11:00,68.8,58.2,29.80,ESE,118,0.0,2.0,69,0.00,,SKC,0.00,VWS V14.01,2013-07-05 07:11:00,
2013-07-05 02:16:00,68.6,58.4,29.81,ESE,118,0.0,2.0,70,0.00,,SKC,0.00,VWS V14.01,2013-07-05 07:16:00,
2013-07-05 02:21:00,68.3,58.2,29.80,ESE,118,0.0,2.0,70,0.00,,SKC,0.00,VWS V14.01,2013-07-05 07:21:00,
2013-07-05 02:26:00,68.1,58.3,29.80,ESE,118,0.0,2.0,71,0.00,,SKC,0.00,VWS V14.01,2013-07-05 07:26:00,
2013-07-05 02:31:00,67.9,58.2,29.80,ESE,118,0.0,0.0,71,0.00,,SKC,0.00,VWS V14.01,2013-07-05 07:31:00,
2013-07-05 02:36:00,67.7,58.4,29.80,ESE,118,0.0,2.0,72,0.00,,SKC,0.00,VWS V14.01,2013-07-05 07:36:00,
2013-07-05 02:41:00,67.7,58.4,29.80,ESE,118,1.0,2.0,72,0.00,,SKC,0.00,VWS V14.01,2013-07-05 07:41:00,
2013-07-05 02:46:00,67.6,58.3,29.80,ESE,118,0.0,2.0,72,0.00,,SKC,0.00,VWS V14.01,2013-07-05 07:46:00,
2013-07-05 02:51:00,67.6,57.9,29.81,ESE,118,0.0,2.0,71,0.00,,SKC,0.00,VWS V14.01,2013-07-05 07:51:00,
2013-07-05 02:56:00,67.5,58.2,29.80,ESE,118,0.0,2.0,72,0.00,,SKC,0.00,VWS V14.01,2013-07-05 07:56:00,
2013-07-05 03:01:00,67.4,58.1,29.80,ESE,118,1.0,2.0,72,0.00,,SKC,0.00,VWS V14.01,2013-07-05 08:01:00,
2013-07-05 03:06:00,67.2,57.9,29.80,ESE,118,0.0,2.0,72,0.00,,SKC,0.00,VWS V14.01,2013-07-05 08:06:00,
2013-07-05 03:11:00,67.3,57.6,29.80,ESE,118,0.0,2.0,71,0.00,,SKC,0.00,VWS V14.01,2013-07-05 08:11:00,
2013-07-05 03:16:00,67.6,57.9,29.80,ESE,118,1.0,2.0,71,0.00,,SKC,0.00,VWS V14.01,2013-07-05 08:16:00,
2013-07-05 03:21:00,67.7,58.0,29.80,ESE,118,0.0,2.0,71,0.00,,SKC,0.00,VWS V14.01,2013-07-05 08:21:00,
2013-07-05 03:26:00,67.9,58.2,29.80,ESE,118,0.0,2.0,71,0.00,,SKC,0.00,VWS V14.01,2013-07-05 08:26:00,
2013-07-05 03:31:00,67.9,58.2,29.80,ESE,118,0.0,1.0,71,0.00,,SKC,0.00,VWS V14.01,2013-07-05 08:31:00,
2013-07-05 03:36:00,67.9,58.2,29.80,ESE,118,0.0,1.0,71,0.00,,SKC,0.00,VWS V14.01,2013-07-05 08:36:00,
2013-07-05 03:41:00,67.8,58.1,29.80,ESE,118,0.0,2.0,71,0.00,,SKC,0.00,VWS V14.01,2013-07-05 08:41:00,
2013-07-05 03:46:00,67.7,58.0,29.80,ESE,118,1.0,2.0,71,0.00,,SKC,0.00,VWS V14.01,2013-07-05 08:46:00,
2013-07-05 03:51:00,67.6,58.3,29.80,ESE,118,1.0,4.0,72,0.00,,SKC,0.00,VWS V14.01,2013-07-05 08:51:00,
2013-07-05 03:56:00,67.7,58.4,29.80,ESE,117,0.0,4.0,72,0.00,,SKC,0.00,VWS V14.01,2013-07-05 08:56:00,
2013-07-05 04:01:00,67.7,58.4,29.80,ESE,117,0.0,1.0,72,0.00,,SKC,0.00,VWS V14.01,2013-07-05 09:01:00,
2013-07-05 04:06:00,67.5,58.0,29.80,ESE,117,0.0,-999.0,72,-99.99,,,0.00,weatherlink.com 1.10,2013-07-05 09:06:00,
2013-07-05 04:11:00,67.2,58.3,29.80,ESE,117,0.0,1.0,73,0.00,,SKC,0.00,VWS V14.01,2013-07-05 09:11:00,
2013-07-05 04:16:00,67.0,58.5,29.80,ESE,117,1.0,1.0,74,0.00,,SKC,0.00,VWS V14.01,2013-07-05 09:16:00,
2013-07-05 04:21:00,66.8,58.3,29.80,ESE,117,0.0,4.0,74,0.00,,SKC,0.00,VWS V14.01,2013-07-05 09:21:00,
2013-07-05 04:26:00,66.8,58.3,29.80,ESE,117,0.0,4.0,74,0.00,,SKC,0.00,VWS V14.01,2013-07-05 09:26:00,
2013-07-05 04:31:00,66.6,58.4,29.80,ESE,117,0.0,1.0,75,0.00,,SKC,0.00,VWS V14.01,2013-07-05 09:31:00,
2013-07-05 04:37:00,66.5,58.3,29.80,ESE,117,0.0,1.0,75,0.00,,SKC,0.00,VWS V14.01,2013-07-05 09:37:00,
2013-07-05 04:42:00,66.3,58.5,29.80,ESE,117,0.0,1.0,76,0.00,,SKC,0.00,VWS V14.01,2013-07-05 09:42:00,
2013-07-05 04:47:00,66.3,58.5,29.80,ESE,117,0.0,2.0,76,0.00,,SKC,0.00,VWS V14.01,2013-07-05 09:47:00,
2013-07-05 04:52:00,66.3,58.5,29.80,ESE,117,0.0,2.0,76,0.00,,SKC,0.00,VWS V14.01,2013-07-05 09:52:00,
2013-07-05 04:57:00,66.2,58.4,29.80,ESE,117,0.0,2.0,76,0.00,,SKC,0.00,VWS V14.01,2013-07-05 09:57:00,
2013-07-05 05:02:00,66.1,58.7,29.80,ESE,117,1.0,1.0,77,0.00,,SKC,0.00,VWS V14.01,2013-07-05 10:02:00,
2013-07-05 05:07:00,66.2,58.8,29.80,ESE,117,1.0,4.0,77,0.00,,SKC,0.00,VWS V14.01,2013-07-05 10:07:00,
2013-07-05 05:12:00,66.3,58.5,29.80,ESE,117,0.0,4.0,76,0.00,,SKC,0.00,VWS V14.01,2013-07-05 10:12:00,
2013-07-05 05:17:00,66.3,58.9,29.80,ESE,117,0.0,4.0,77,0.00,,SKC,0.00,VWS V14.01,2013-07-05 10:17:00,
2013-07-05 05:22:00,66.3,58.5,29.80,ESE,117,0.0,4.0,76,0.00,,SKC,0.00,VWS V14.01,2013-07-05 10:22:00,
2013-07-05 05:27:00,66.4,59.0,29.81,ESE,117,0.0,4.0,77,0.00,,SKC,0.00,VWS V14.01,2013-07-05 10:27:00,
2013-07-05 05:32:00,66.4,59.0,29.81,ESE,117,0.0,1.0,77,0.00,,SKC,0.00,VWS V14.01,2013-07-05 10:32:00,
2013-07-05 05:38:00,66.4,59.0,29.81,ESE,117,1.0,2.0,77,0.00,,SKC,0.00,VWS V14.01,2013-07-05 10:38:00,
2013-07-05 05:43:00,66.5,59.1,29.81,ESE,117,0.0,2.0,77,0.00,,SKC,0.00,VWS V14.01,2013-07-05 10:43:00,
2013-07-05 05:48:00,66.7,59.0,29.81,ESE,117,0.0,-999.0,77,-99.99,,,0.00,weatherlink.com 1.10,2013-07-05 10:48:00,
2013-07-05 05:53:00,66.8,59.4,29.81,ESE,117,0.0,2.0,77,0.00,,SKC,0.00,VWS V14.01,2013-07-05 10:53:00,
2013-07-05 05:58:00,67.1,59.3,29.81,ESE,112,4.0,4.0,76,0.00,,SKC,0.00,VWS V14.01,2013-07-05 10:58:00,
2013-07-05 06:03:00,67.3,59.5,29.80,ESE,112,0.0,4.0,76,0.00,,SKC,0.00,VWS V14.01,2013-07-05 11:03:00,
2013-07-05 06:08:00,67.4,59.6,29.80,ESE,112,1.0,4.0,76,0.00,,SKC,0.00,VWS V14.01,2013-07-05 11:08:00,
2013-07-05 06:13:00,67.5,59.7,29.80,ESE,112,0.0,4.0,76,0.00,,SKC,0.00,VWS V14.01,2013-07-05 11:13:00,
2013-07-05 06:18:00,67.6,59.8,29.80,ESE,112,4.0,5.0,76,0.00,,SKC,0.00,VWS V14.01,2013-07-05 11:18:00,
2013-07-05 06:23:00,67.8,59.6,29.80,ESE,106,2.0,5.0,75,0.00,,SKC,0.00,VWS V14.01,2013-07-05 11:23:00,
2013-07-05 06:28:00,67.9,59.7,29.80,ESE,109,0.0,6.0,75,0.00,,SKC,0.00,VWS V14.01,2013-07-05 11:28:00,
2013-07-05 06:33:00,68.0,59.8,29.80,ESE,102,2.0,6.0,75,0.00,,SKC,0.00,VWS V14.01,2013-07-05 11:33:00,
2013-07-05 06:38:00,68.2,60.0,29.80,East,98,2.0,6.0,75,0.00,,SKC,0.00,VWS V14.01,2013-07-05 11:38:00,
2013-07-05 06:43:00,68.3,60.1,29.80,East,99,1.0,6.0,75,0.00,,SKC,0.00,VWS V14.01,2013-07-05 11:43:00,
2013-07-05 06:48:00,68.5,60.3,29.79,ESE,117,4.0,6.0,75,0.00,,SKC,0.00,VWS V14.01,2013-07-05 11:48:00,
2013-07-05 06:53:00,68.8,60.2,29.79,ESE,110,0.0,6.0,74,0.00,,SKC,0.00,VWS V14.01,2013-07-05 11:53:00,
2013-07-05 06:58:00,68.9,60.7,29.79,ESE,103,4.0,8.0,75,0.00,,SKC,0.00,VWS V14.01,2013-07-05 11:58:00,
2013-07-05 07:03:00,69.0,60.4,29.79,East,88,3.0,6.0,74,0.00,,SKC,0.00,VWS V14.01,2013-07-05 12:03:00,
2013-07-05 07:08:00,69.2,60.6,29.79,East,84,1.0,6.0,74,0.00,,SKC,0.00,VWS V14.01,2013-07-05 12:08:00,
2013-07-05 07:13:00,69.3,60.3,29.79,ESE,111,1.0,7.0,73,0.00,,SKC,0.00,VWS V14.01,2013-07-05 12:13:00,
2013-07-05 07:19:00,69.8,60.8,29.79,ESE,123,4.0,7.0,73,0.00,,SKC,0.00,VWS V14.01,2013-07-05 12:19:00,
2013-07-05 07:24:00,70.2,60.8,29.79,ESE,119,1.0,8.0,72,0.00,,SKC,0.00,VWS V14.01,2013-07-05 12:24:00,
2013-07-05 07:29:00,70.9,61.0,29.78,ENE,71,4.0,8.0,71,0.00,,SKC,0.00,VWS V14.01,2013-07-05 12:29:00,
2013-07-05 07:34:00,71.5,61.2,29.78,ESE,117,4.0,8.0,70,0.00,,SKC,0.00,VWS V14.01,2013-07-05 12:34:00,
2013-07-05 07:39:00,72.1,60.5,29.78,ESE,113,6.0,9.0,67,0.00,,SKC,0.00,VWS V14.01,2013-07-05 12:39:00,
2013-07-05 07:44:00,72.4,61.2,29.78,East,98,1.0,9.0,68,0.00,,SKC,0.00,VWS V14.01,2013-07-05 12:44:00,
2013-07-05 07:49:00,72.5,60.5,29.78,East,94,2.0,9.0,66,0.00,,SKC,0.00,VWS V14.01,2013-07-05 12:49:00,
2013-07-05 07:54:00,72.6,61.0,29.78,ESE,118,6.0,9.0,67,0.00,,SKC,0.00,VWS V14.01,2013-07-05 12:54:00,
2013-07-05 07:59:00,72.8,61.2,29.78,ESE,107,9.0,9.0,67,0.00,,SKC,0.00,VWS V14.01,2013-07-05 12:59:00,
2013-07-05 08:04:00,73.4,60.9,29.78,East,97,2.0,9.0,65,0.00,,SKC,0.00,VWS V14.01,2013-07-05 13:04:00,
2013-07-05 08:09:00,74.0,61.5,29.78,ESE,108,2.0,11.0,65,0.00,,SKC,0.00,VWS V14.01,2013-07-05 13:09:00,
2013-07-05 08:14:00,74.4,61.4,29.78,ESE,113,0.0,11.0,64,0.00,,SKC,0.00,VWS V14.01,2013-07-05 13:14:00,
2013-07-05 08:19:00,74.4,61.0,29.78,East,101,4.0,11.0,63,0.00,,SKC,0.00,VWS V14.01,2013-07-05 13:19:00,
2013-07-05 08:24:00,74.4,61.0,29.78,ESE,115,5.0,11.0,63,0.00,,SKC,0.00,VWS V14.01,2013-07-05 13:24:00,
2013-07-05 08:29:00,74.7,61.3,29.78,SE,134,5.0,7.0,63,0.00,,SKC,0.00,VWS V14.01,2013-07-05 13:29:00,
2013-07-05 08:35:00,74.8,60.9,29.78,East,98,4.0,14.0,62,0.00,,SKC,0.00,VWS V14.01,2013-07-05 13:35:00,
2013-07-05 08:40:00,74.8,61.8,29.78,East,98,2.0,14.0,64,0.00,,SKC,0.00,VWS V14.01,2013-07-05 13:40:00,
2013-07-05 08:45:00,75.2,61.3,29.78,ESE,111,6.0,14.0,62,0.00,,SKC,0.00,VWS V14.01,2013-07-05 13:45:00,
2013-07-05 08:50:00,75.8,61.4,29.78,ENE,72,3.0,14.0,61,0.00,,SKC,0.00,VWS V14.01,2013-07-05 13:50:00,
2013-07-05 08:55:00,76.4,62.9,29.78,East,92,4.0,14.0,63,0.00,,SKC,0.00,VWS V14.01,2013-07-05 13:55:00,
2013-07-05 09:00:00,76.9,62.4,29.77,ENE,72,7.0,7.0,61,0.00,,SKC,0.00,VWS V14.01,2013-07-05 14:00:00,
2013-07-05 09:05:00,77.2,61.3,29.77,East,80,7.0,11.0,58,0.00,,SKC,0.00,VWS V14.01,2013-07-05 14:05:00,
2013-07-05 09:10:00,77.1,61.7,29.77,ESE,107,7.0,12.0,59,0.00,,SKC,0.00,VWS V14.01,2013-07-05 14:10:00,
2013-07-05 09:15:00,77.4,61.5,29.77,ESE,110,6.0,12.0,58,0.00,,SKC,0.00,VWS V14.01,2013-07-05 14:15:00,
2013-07-05 09:20:00,77.8,62.3,29.77,East,98,12.0,13.0,59,0.00,,SKC,0.00,VWS V14.01,2013-07-05 14:20:00,
2013-07-05 09:25:00,78.1,61.6,29.77,SE,134,0.0,15.0,57,0.00,,SKC,0.00,VWS V14.01,2013-07-05 14:25:00,
2013-07-05 09:30:00,78.2,62.2,29.76,ESE,103,0.0,8.0,58,0.00,,SKC,0.00,VWS V14.01,2013-07-05 14:30:00,
2013-07-05 09:35:00,78.6,63.1,29.76,East,88,1.0,8.0,59,0.00,,SKC,0.00,VWS V14.01,2013-07-05 14:35:00,
2013-07-05 09:40:00,79.2,62.2,29.76,East,96,2.0,9.0,56,0.00,,SKC,0.00,VWS V14.01,2013-07-05 14:40:00,
2013-07-05 09:46:00,79.6,62.5,29.76,East,96,1.0,13.0,56,0.00,,SKC,0.00,VWS V14.01,2013-07-05 14:46:00,
2013-07-05 09:51:00,79.9,62.3,29.77,ESE,117,0.0,13.0,55,0.00,,SKC,0.00,VWS V14.01,2013-07-05 14:51:00,
2013-07-05 09:56:00,80.2,62.1,29.77,ESE,104,1.0,13.0,54,0.00,,SKC,0.00,VWS V14.01,2013-07-05 14:56:00,
2013-07-05 10:01:00,80.5,62.3,29.76,ESE,107,7.0,8.0,54,0.00,,SKC,0.00,VWS V14.01,2013-07-05 15:01:00,
2013-07-05 10:06:00,80.7,62.5,29.76,East,92,8.0,11.0,54,0.00,,SKC,0.00,VWS V14.01,2013-07-05 15:06:00,
2013-07-05 10:11:00,80.7,62.0,29.76,ESE,104,2.0,14.0,53,0.00,,SKC,0.00,VWS V14.01,2013-07-05 15:11:00,
2013-07-05 10:16:00,80.7,62.0,29.76,East,94,4.0,14.0,53,0.00,,SKC,0.00,VWS V14.01,2013-07-05 15:16:00,
2013-07-05 10:21:00,81.0,62.3,29.76,ESE,117,2.0,14.0,53,0.00,,SKC,0.00,VWS V14.01,2013-07-05 15:21:00,
2013-07-05 10:26:00,81.2,62.5,29.75,ESE,105,0.0,14.0,53,0.00,,SKC,0.00,VWS V14.01,2013-07-05 15:26:00,
2013-07-05 10:31:00,81.6,62.8,29.76,SE,127,1.0,7.0,53,0.00,,SKC,0.00,VWS V14.01,2013-07-05 15:31:00,
2013-07-05 10:36:00,82.0,63.2,29.76,ESE,105,5.0,11.0,53,0.00,,SKC,0.00,VWS V14.01,2013-07-05 15:36:00,
2013-07-05 10:41:00,82.1,63.3,29.76,ESE,106,5.0,11.0,53,0.00,,SKC,0.00,VWS V14.01,2013-07-05 15:41:00,
2013-07-05 10:46:00,82.4,63.0,29.76,SE,142,2.0,11.0,52,0.00,,SKC,0.00,VWS V14.01,2013-07-05 15:46:00,
2013-07-05 10:50:00,82.4,62.5,29.76,ESE,111,5.0,14.0,51,0.00,,SKC,0.00,VWS V14.01,2013-07-05 15:50:00,
2013-07-05 10:55:00,82.3,62.9,29.76,East,86,5.0,14.0,52,0.00,,SKC,0.00,VWS V14.01,2013-07-05 15:55:00,
2013-07-05 11:00:00,82.5,63.1,29.76,East,82,2.0,8.0,52,0.00,,SKC,0.00,VWS V14.01,2013-07-05 16:00:00,
2013-07-05 11:05:00,82.9,63.5,29.76,ESE,108,0.0,12.0,52,0.00,,SKC,0.00,VWS V14.01,2013-07-05 16:05:00,
2013-07-05 11:10:00,83.2,62.1,29.76,ESE,123,0.0,13.0,49,0.00,,SKC,0.00,VWS V14.01,2013-07-05 16:10:00,
2013-07-05 11:15:00,83.4,62.3,29.76,ESE,115,0.0,13.0,49,0.00,,SKC,0.00,VWS V14.01,2013-07-05 16:15:00,
2013-07-05 11:20:00,83.5,62.3,29.76,East,98,6.0,13.0,49,0.00,,SKC,0.00,VWS V14.01,2013-07-05 16:20:00,
2013-07-05 11:25:00,83.4,62.8,29.76,NNE,30,1.0,13.0,50,0.00,,SKC,0.00,VWS V14.01,2013-07-05 16:25:00,
2013-07-05 11:30:00,83.2,62.7,29.76,East,96,0.0,4.0,50,0.00,,SKC,0.00,VWS V14.01,2013-07-05 16:30:00,
2013-07-05 11:35:00,82.5,63.1,29.76,SE,128,0.0,12.0,52,0.00,,SKC,0.00,VWS V14.01,2013-07-05 16:35:00,
2013-07-05 11:40:00,82.2,62.8,29.76,East,94,4.0,12.0,52,0.00,,SKC,0.00,VWS V14.01,2013-07-05 16:40:00,
2013-07-05 11:45:00,82.1,62.8,29.75,East,84,3.0,12.0,52,0.00,,SKC,0.00,VWS V14.01,2013-07-05 16:45:00,
2013-07-05 11:50:00,81.9,62.6,29.75,ESE,110,0.0,13.0,52,0.00,,SKC,0.00,VWS V14.01,2013-07-05 16:50:00,
2013-07-05 11:55:00,82.1,63.8,29.75,East,88,3.0,13.0,54,0.00,,SKC,0.00,VWS V14.01,2013-07-05 16:55:00,
2013-07-05 12:00:00,82.9,63.5,29.75,WSW,247,0.0,7.0,52,0.00,,SKC,0.00,VWS V14.01,2013-07-05 17:00:00,
2013-07-05 12:05:00,83.2,64.3,29.75,East,85,5.0,9.0,53,0.00,,SKC,0.00,VWS V14.01,2013-07-05 17:05:00,
2013-07-05 12:10:00,83.5,64.0,29.75,ESE,109,5.0,11.0,52,0.00,,SKC,0.00,VWS V14.01,2013-07-05 17:10:00,
2013-07-05 12:15:00,83.0,63.6,29.75,East,85,1.0,11.0,52,0.00,,SKC,0.00,VWS V14.01,2013-07-05 17:15:00,
2013-07-05 12:20:00,83.2,64.8,29.75,West,267,1.0,11.0,54,0.00,,SKC,0.00,VWS V14.01,2013-07-05 17:20:00,
2013-07-05 12:25:00,83.6,63.0,29.75,SE,137,2.0,11.0,50,0.00,,SKC,0.00,VWS V14.01,2013-07-05 17:25:00,
2013-07-05 12:30:00,83.7,64.2,29.75,SE,128,7.0,7.0,52,0.00,,SKC,0.00,VWS V14.01,2013-07-05 17:30:00,
2013-07-05 12:35:00,83.7,63.7,29.75,SSE,148,5.0,8.0,51,0.00,,SKC,0.00,VWS V14.01,2013-07-05 17:35:00,
2013-07-05 12:40:00,83.9,63.3,29.75,North,5,0.0,8.0,50,0.00,,SKC,0.00,VWS V14.01,2013-07-05 17:40:00,
2013-07-05 12:45:00,84.3,63.7,29.75,ESE,115,1.0,9.0,50,0.00,,SKC,0.00,VWS V14.01,2013-07-05 17:45:00,
2013-07-05 12:50:00,84.5,63.8,29.75,East,86,2.0,9.0,50,0.00,,SKC,0.00,VWS V14.01,2013-07-05 17:50:00,
2013-07-05 12:55:00,84.7,63.5,29.75,SE,126,0.0,9.0,49,0.00,,SKC,0.00,VWS V14.01,2013-07-05 17:55:00,
2013-07-05 13:00:00,84.2,63.6,29.75,SSE,161,0.0,8.0,50,0.00,,SKC,0.00,VWS V14.01,2013-07-05 18:00:00,
2013-07-05 13:05:00,83.5,62.9,29.75,ESE,121,1.0,9.0,50,0.00,,SKC,0.00,VWS V14.01,2013-07-05 18:05:00,
2013-07-05 13:10:00,83.1,63.7,29.75,East,81,2.0,9.0,52,0.00,,SKC,0.00,VWS V14.01,2013-07-05 18:10:00,
2013-07-05 13:15:00,83.1,62.5,29.75,East,96,4.0,15.0,50,0.00,,SKC,0.00,VWS V14.01,2013-07-05 18:15:00,
2013-07-05 13:20:00,83.0,63.0,29.75,NNE,23,3.0,15.0,51,0.00,,SKC,0.00,VWS V14.01,2013-07-05 18:20:00,
2013-07-05 13:25:00,83.4,64.5,29.75,NW,317,4.0,15.0,53,0.00,,SKC,0.00,VWS V14.01,2013-07-05 18:25:00,
2013-07-05 13:30:00,83.8,64.3,29.75,ENE,71,0.0,5.0,52,0.00,,SKC,0.00,VWS V14.01,2013-07-05 18:30:00,
2013-07-05 13:35:00,84.1,64.0,29.75,ESE,123,4.0,9.0,51,0.00,,SKC,0.00,VWS V14.01,2013-07-05 18:35:00,
2013-07-05 13:40:00,84.0,63.9,29.75,SSE,153,6.0,12.0,51,0.00,,SKC,0.00,VWS V14.01,2013-07-05 18:40:00,
2013-07-05 13:45:00,83.9,64.9,29.75,ENE,58,2.0,12.0,53,0.00,,SKC,0.00,VWS V14.01,2013-07-05 18:45:00,
2013-07-05 13:50:00,83.9,64.9,29.74,West,276,5.0,12.0,53,0.00,,SKC,0.00,VWS V14.01,2013-07-05 18:50:00,
2013-07-05 13:55:00,84.0,64.5,29.75,ESE,114,0.0,12.0,52,0.00,,SKC,0.00,VWS V14.01,2013-07-05 18:55:00,
2013-07-05 14:00:00,84.0,65.1,29.75,East,101,1.0,4.0,53,0.00,,SKC,0.00,VWS V14.01,2013-07-05 19:00:00,
2013-07-05 14:05:00,84.2,64.7,29.75,East,92,0.0,7.0,52,0.00,,SKC,0.00,VWS V14.01,2013-07-05 19:05:00,
2013-07-05 14:10:00,84.3,63.7,29.75,ENE,73,4.0,7.0,50,0.00,,SKC,0.00,VWS V14.01,2013-07-05 19:10:00,
2013-07-05 14:15:00,84.3,63.7,29.74,ESE,113,5.0,8.0,50,0.00,,SKC,0.00,VWS V14.01,2013-07-05 19:15:00,
2013-07-05 14:20:00,84.6,65.1,29.74,West,259,1.0,8.0,52,0.00,,SKC,0.00,VWS V14.01,2013-07-05 19:20:00,
2013-07-05 14:25:00,84.9,65.3,29.74,East,84,3.0,8.0,52,0.00,,SKC,0.00,VWS V14.01,2013-07-05 19:25:00,
2013-07-05 14:30:00,85.0,64.9,29.75,SE,131,0.0,7.0,51,0.00,,SKC,0.00,VWS V14.01,2013-07-05 19:30:00,
2013-07-05 14:35:00,84.7,62.9,29.74,ESE,121,6.0,9.0,48,0.00,,SKC,0.00,VWS V14.01,2013-07-05 19:35:00,
2013-07-05 14:40:00,84.2,63.0,29.75,ENE,59,0.0,11.0,49,0.00,,SKC,0.00,VWS V14.01,2013-07-05 19:40:00,
2013-07-05 14:45:00,83.9,62.7,29.74,SE,132,4.0,11.0,49,0.00,,SKC,0.00,VWS V14.01,2013-07-05 19:45:00,
2013-07-05 14:50:00,83.7,63.1,29.74,SE,128,4.0,13.0,50,0.00,,SKC,0.00,VWS V14.01,2013-07-05 19:50:00,
2013-07-05 14:55:00,83.9,63.8,29.73,SE,126,6.0,13.0,51,0.00,,SKC,0.00,VWS V14.01,2013-07-05 19:55:00,
2013-07-05 15:00:00,84.2,64.1,29.73,East,92,4.0,9.0,51,0.00,,SKC,0.00,VWS V14.01,2013-07-05 20:00:00,
2013-07-05 15:05:00,84.8,65.2,29.73,SE,124,6.0,9.0,52,0.00,,SKC,0.00,VWS V14.01,2013-07-05 20:05:00,
2013-07-05 15:10:00,85.5,64.8,29.73,ESE,113,6.0,11.0,50,0.00,,SKC,0.00,VWS V14.01,2013-07-05 20:10:00,
2013-07-05 15:15:00,86.1,64.7,29.73,ESE,120,7.0,11.0,49,0.00,,SKC,0.00,VWS V14.01,2013-07-05 20:15:00,
2013-07-05 15:20:00,86.2,64.2,29.72,South,175,2.0,13.0,48,0.00,,SKC,0.00,VWS V14.01,2013-07-05 20:20:00,
2013-07-05 15:25:00,86.3,63.1,29.72,SE,144,5.0,13.0,46,0.00,,SKC,0.00,VWS V14.01,2013-07-05 20:25:00,
2013-07-05 15:30:00,85.8,63.3,29.72,ESE,121,12.0,13.0,47,0.00,,SKC,0.00,VWS V14.01,2013-07-05 20:30:00,
2013-07-05 15:35:00,85.7,63.2,29.72,ESE,115,1.0,14.0,47,0.00,,SKC,0.00,VWS V14.01,2013-07-05 20:35:00,
2013-07-05 15:40:00,85.9,63.3,29.72,SE,134,5.0,14.0,47,0.00,,SKC,0.00,VWS V14.01,2013-07-05 20:40:00,
2013-07-05 15:45:00,86.1,62.9,29.72,ESE,114,7.0,18.0,46,0.00,,SKC,0.00,VWS V14.01,2013-07-05 20:45:00,
2013-07-05 15:50:00,86.4,63.2,29.72,East,80,4.0,18.0,46,0.00,,SKC,0.00,VWS V14.01,2013-07-05 20:50:00,
2013-07-05 15:55:00,86.6,63.4,29.72,WNW,290,4.0,18.0,46,0.00,,SKC,0.00,VWS V14.01,2013-07-05 20:55:00,
2013-07-05 16:00:00,86.5,63.3,29.72,ESE,123,1.0,7.0,46,0.00,,SKC,0.00,VWS V14.01,2013-07-05 21:00:00,
2013-07-05 16:05:00,86.8,64.2,29.72,ESE,109,1.0,7.0,47,0.00,,SKC,0.00,VWS V14.01,2013-07-05 21:05:00,
2013-07-05 16:10:00,86.9,62.4,29.72,ESE,105,5.0,12.0,44,0.00,,SKC,0.00,VWS V14.01,2013-07-05 21:10:00,
2013-07-05 16:15:00,86.7,63.5,29.71,SE,138,8.0,15.0,46,0.00,,SKC,0.00,VWS V14.01,2013-07-05 21:15:00,
2013-07-05 16:20:00,86.7,62.2,29.71,East,87,7.0,15.0,44,0.00,,SKC,0.00,VWS V14.01,2013-07-05 21:20:00,
2013-07-05 16:25:00,86.9,63.7,29.71,East,96,11.0,16.0,46,0.00,,SKC,0.00,VWS V14.01,2013-07-05 21:25:00,
2013-07-05 16:30:00,87.1,63.8,29.71,ESE,107,1.0,6.0,46,0.00,,SKC,0.00,VWS V14.01,2013-07-05 21:30:00,
2013-07-05 16:35:00,87.4,62.2,29.71,West,276,6.0,7.0,43,0.00,,SKC,0.00,VWS V14.01,2013-07-05 21:35:00,
2013-07-05 16:40:00,87.3,62.1,29.71,South,190,4.0,15.0,43,0.00,,SKC,0.00,VWS V14.01,2013-07-05 21:40:00,
2013-07-05 16:45:00,87.3,62.1,29.71,East,100,6.0,15.0,43,0.00,,SKC,0.00,VWS V14.01,2013-07-05 21:45:00,
2013-07-05 16:50:00,87.2,62.7,29.71,ESE,109,4.0,15.0,44,0.00,,SKC,0.00,VWS V14.01,2013-07-05 21:50:00,
2013-07-05 16:55:00,87.3,62.7,29.71,East,87,5.0,15.0,44,0.00,,SKC,0.00,VWS V14.01,2013-07-05 21:55:00,
2013-07-05 17:00:00,87.3,62.1,29.71,East,88,2.0,7.0,43,0.00,,SKC,0.00,VWS V14.01,2013-07-05 22:00:00,
2013-07-05 17:05:00,87.5,62.9,29.71,SE,133,0.0,7.0,44,0.00,,SKC,0.00,VWS V14.01,2013-07-05 22:05:00,
2013-07-05 17:10:00,87.6,63.0,29.71,East,99,11.0,11.0,44,0.00,,SKC,0.00,VWS V14.01,2013-07-05 22:10:00,
2013-07-05 17:15:00,87.4,61.5,29.71,SE,134,9.0,13.0,42,0.00,,SKC,0.00,VWS V14.01,2013-07-05 22:15:00,
2013-07-05 17:20:00,87.3,62.7,29.71,East,92,2.0,13.0,44,0.00,,SKC,0.00,VWS V14.01,2013-07-05 22:20:00,
2013-07-05 17:25:00,87.5,62.3,29.71,ESE,104,12.0,13.0,43,0.00,,SKC,0.00,VWS V14.01,2013-07-05 22:25:00,
2013-07-05 17:30:00,87.4,61.5,29.71,ESE,109,1.0,6.0,42,0.00,,SKC,0.00,VWS V14.01,2013-07-05 22:30:00,
2013-07-05 17:35:00,87.2,60.7,29.70,East,98,1.0,15.0,41,0.00,,SKC,0.00,VWS V14.01,2013-07-05 22:35:00,
2013-07-05 17:40:00,87.1,61.2,29.70,SW,217,4.0,15.0,42,0.00,,SKC,0.00,VWS V14.01,2013-07-05 22:40:00,
2013-07-05 17:45:00,87.1,61.9,29.70,East,84,2.0,15.0,43,0.00,,SKC,0.00,VWS V14.01,2013-07-05 22:45:00,
2013-07-05 17:50:00,87.0,61.2,29.70,SE,125,8.0,15.0,42,0.00,,SKC,0.00,VWS V14.01,2013-07-05 22:50:00,
2013-07-05 17:55:00,86.8,60.3,29.71,ENE,78,4.0,15.0,41,0.00,,SKC,0.00,VWS V14.01,2013-07-05 22:55:00,
2013-07-05 18:00:00,86.6,60.8,29.71,ESE,105,6.0,11.0,42,0.00,,SKC,0.00,VWS V14.01,2013-07-05 23:00:00,
2013-07-05 18:05:00,86.5,62.0,29.71,NW,316,1.0,11.0,44,0.00,,SKC,0.00,VWS V14.01,2013-07-05 23:05:00,
2013-07-05 18:10:00,86.6,62.1,29.71,ESE,111,6.0,11.0,44,0.00,,SKC,0.00,VWS V14.01,2013-07-05 23:10:00,
2013-07-05 18:15:00,86.4,61.9,29.70,ENE,62,2.0,13.0,44,0.00,,SKC,0.00,VWS V14.01,2013-07-05 23:15:00,
2013-07-05 18:20:00,86.4,61.9,29.70,ESE,108,0.0,13.0,44,0.00,,SKC,0.00,VWS V14.01,2013-07-05 23:20:00,
2013-07-05 18:25:00,86.3,62.5,29.70,ESE,121,7.0,13.0,45,0.00,,SKC,0.00,VWS V14.01,2013-07-05 23:25:00,
2013-07-05 18:30:00,86.2,63.0,29.70,East,84,6.0,7.0,46,0.00,,SKC,0.00,VWS V14.01,2013-07-05 23:30:00,
2013-07-05 18:35:00,85.9,62.7,29.70,ENE,78,4.0,14.0,46,0.00,,SKC,0.00,VWS V14.01,2013-07-05 23:35:00,
2013-07-05 18:40:00,85.8,62.7,29.71,East,88,6.0,14.0,46,0.00,,SKC,0.00,VWS V14.01,2013-07-05 23:40:00,
2013-07-05 18:45:00,85.6,63.1,29.70,East,100,0.0,14.0,47,0.00,,SKC,0.00,VWS V14.01,2013-07-05 23:45:00,
2013-07-05 18:50:00,85.5,64.2,29.70,East,92,0.0,14.0,49,0.00,,SKC,0.00,VWS V14.01,2013-07-05 23:50:00,
2013-07-05 18:55:00,85.4,64.1,29.70,East,100,1.0,14.0,49,0.00,,SKC,0.00,VWS V14.01,2013-07-05 23:55:00,
2013-07-05 19:00:00,85.2,63.9,29.70,ESE,123,1.0,6.0,49,0.00,,SKC,0.00,VWS V14.01,2013-07-06 00:00:00,
2013-07-05 19:05:00,85.1,64.4,29.70,ENE,71,0.0,9.0,50,0.00,,SKC,0.00,VWS V14.01,2013-07-06 00:05:00,
2013-07-05 19:10:00,84.9,64.2,29.70,SE,131,1.0,16.0,50,0.00,,SKC,0.00,VWS V14.01,2013-07-06 00:10:00,
2013-07-05 19:15:00,84.8,64.7,29.70,ESE,111,5.0,16.0,51,0.00,,SKC,0.00,VWS V14.01,2013-07-06 00:15:00,
2013-07-05 19:20:00,84.6,64.5,29.70,ENE,63,5.0,16.0,51,0.00,,SKC,0.00,VWS V14.01,2013-07-06 00:20:00,
2013-07-05 19:25:00,84.4,64.3,29.70,SE,136,4.0,16.0,51,0.00,,SKC,0.00,VWS V14.01,2013-07-06 00:25:00,
2013-07-05 19:30:00,84.1,64.6,29.70,ESE,109,0.0,5.0,52,0.00,,SKC,0.00,VWS V14.01,2013-07-06 00:30:00,
2013-07-05 19:35:00,83.8,64.9,29.70,East,98,6.0,6.0,53,0.00,,SKC,0.00,VWS V14.01,2013-07-06 00:35:00,
2013-07-05 19:40:00,83.6,65.2,29.70,East,98,0.0,6.0,54,0.00,,SKC,0.00,VWS V14.01,2013-07-06 00:40:00,
2013-07-05 19:45:00,83.3,64.9,29.70,ESE,107,2.0,6.0,54,0.00,,SKC,0.00,VWS V14.01,2013-07-06 00:45:00,
2013-07-05 19:50:00,83.1,64.8,29.70,SE,128,1.0,7.0,54,0.00,,SKC,0.00,VWS V14.01,2013-07-06 00:50:00,
2013-07-05 19:55:00,83.0,64.7,29.70,East,97,1.0,7.0,54,0.00,,SKC,0.00,VWS V14.01,2013-07-06 00:55:00,
2013-07-05 20:00:00,82.9,65.1,29.70,East,92,2.0,4.0,55,0.00,,SKC,0.00,VWS V14.01,2013-07-06 01:00:00,
2013-07-05 20:05:00,82.8,65.0,29.70,ESE,119,5.0,6.0,55,0.00,,SKC,0.00,VWS V14.01,2013-07-06 01:05:00,
2013-07-05 20:10:00,82.7,64.9,29.71,ESE,109,1.0,7.0,55,0.00,,SKC,0.00,VWS V14.01,2013-07-06 01:10:00,
2013-07-05 20:15:00,82.5,65.2,29.71,East,92,2.0,9.0,56,0.00,,SKC,0.00,VWS V14.01,2013-07-06 01:15:00,
2013-07-05 20:20:00,82.4,65.1,29.71,ESE,113,6.0,9.0,56,0.00,,SKC,0.00,VWS V14.01,2013-07-06 01:20:00,
2013-07-05 20:25:00,82.2,65.0,29.71,ESE,103,1.0,9.0,56,0.00,,SKC,0.00,VWS V14.01,2013-07-06 01:25:00,
2013-07-05 20:30:00,82.0,64.8,29.70,East,86,4.0,7.0,56,0.00,,SKC,0.00,VWS V14.01,2013-07-06 01:30:00,
2013-07-05 20:35:00,82.0,64.8,29.70,SSE,148,0.0,11.0,56,0.00,,SKC,0.00,VWS V14.01,2013-07-06 01:35:00,
2013-07-05 20:40:00,81.8,64.6,29.70,ESE,107,0.0,11.0,56,0.00,,SKC,0.00,VWS V14.01,2013-07-06 01:40:00,
2013-07-05 20:45:00,81.6,64.9,29.70,ESE,113,5.0,11.0,57,0.00,,SKC,0.00,VWS V14.01,2013-07-06 01:45:00,
2013-07-05 20:50:00,81.5,64.8,29.70,East,90,2.0,11.0,57,0.00,,SKC,0.00,VWS V14.01,2013-07-06 01:50:00,
2013-07-05 20:55:00,81.4,64.7,29.70,East,80,1.0,11.0,57,0.00,,SKC,0.00,VWS V14.01,2013-07-06 01:55:00,
2013-07-05 21:00:00,81.4,64.7,29.70,ESE,106,5.0,7.0,57,0.00,,SKC,0.00,VWS V14.01,2013-07-06 02:00:00,
2013-07-05 21:05:00,81.3,64.6,29.70,East,101,4.0,8.0,57,0.00,,SKC,0.00,VWS V14.01,2013-07-06 02:05:00,
2013-07-05 21:10:00,81.2,64.5,29.70,SE,130,6.0,8.0,57,0.00,,SKC,0.00,VWS V14.01,2013-07-06 02:10:00,
2013-07-05 21:15:00,81.2,64.0,29.70,East,86,4.0,8.0,56,0.00,,SKC,0.00,VWS V14.01,2013-07-06 02:15:00,
2013-07-05 21:20:00,81.2,64.0,29.70,East,100,1.0,8.0,56,0.00,,SKC,0.00,VWS V14.01,2013-07-06 02:20:00,
2013-07-05 21:25:00,81.2,64.0,29.70,ESE,102,1.0,13.0,56,0.00,,SKC,0.00,VWS V14.01,2013-07-06 02:25:00,
2013-07-05 21:30:00,81.2,64.0,29.71,East,101,4.0,8.0,56,0.00,,SKC,0.00,VWS V14.01,2013-07-06 02:30:00,
2013-07-05 21:35:00,81.2,64.0,29.71,ESE,116,4.0,9.0,56,0.00,,SKC,0.00,VWS V14.01,2013-07-06 02:35:00,
2013-07-05 21:40:00,81.1,63.4,29.71,ESE,114,2.0,12.0,55,0.00,,SKC,0.00,VWS V14.01,2013-07-06 02:40:00,
2013-07-05 21:45:00,81.1,63.4,29.71,ESE,115,6.0,12.0,55,0.00,,SKC,0.00,VWS V14.01,2013-07-06 02:45:00,
2013-07-05 21:50:00,81.0,63.3,29.71,ESE,113,2.0,12.0,55,0.00,,SKC,0.00,VWS V14.01,2013-07-06 02:50:00,
2013-07-05 21:55:00,80.9,63.2,29.71,East,86,0.0,12.0,55,0.00,,SKC,0.00,VWS V14.01,2013-07-06 02:55:00,
2013-07-05 22:00:00,80.8,63.1,29.71,ESE,106,5.0,6.0,55,0.00,,SKC,0.00,VWS V14.01,2013-07-06 03:00:00,
2013-07-05 22:01:00,80.8,63.1,29.71,East,88,3.0,7.0,55,0.00,,SKC,0.00,VWS V14.01,2013-07-06 03:01:00,
2013-07-05 22:06:00,80.7,63.0,29.71,ESE,106,5.0,12.0,55,0.00,,SKC,0.00,VWS V14.01,2013-07-06 03:06:00,
2013-07-05 22:11:00,80.6,63.0,29.72,SE,133,5.0,14.0,55,0.00,,SKC,0.00,VWS V14.01,2013-07-06 03:11:00,
2013-07-05 22:16:00,80.5,63.4,29.72,ESE,111,1.0,14.0,56,0.00,,SKC,0.00,VWS V14.01,2013-07-06 03:16:00,
2013-07-05 22:21:00,80.3,63.2,29.72,SE,130,0.0,14.0,56,0.00,,SKC,0.00,VWS V14.01,2013-07-06 03:21:00,
2013-07-05 22:26:00,80.1,63.0,29.72,East,98,1.0,14.0,56,0.00,,SKC,0.00,VWS V14.01,2013-07-06 03:26:00,
2013-07-05 22:31:00,80.0,63.4,29.72,ENE,78,5.0,7.0,57,0.00,,SKC,0.00,VWS V14.01,2013-07-06 03:31:00,
2013-07-05 22:36:00,79.9,63.3,29.72,ESE,119,0.0,9.0,57,0.00,,SKC,0.00,VWS V14.01,2013-07-06 03:36:00,
2013-07-05 22:41:00,79.9,63.3,29.73,SE,128,2.0,12.0,57,0.00,,SKC,0.00,VWS V14.01,2013-07-06 03:41:00,
2013-07-05 22:46:00,79.9,63.3,29.73,ESE,105,5.0,12.0,57,0.00,,SKC,0.00,VWS V14.01,2013-07-06 03:46:00,
2013-07-05 22:51:00,79.9,63.3,29.72,ESE,109,2.0,12.0,57,0.00,,SKC,0.00,VWS V14.01,2013-07-06 03:51:00,
2013-07-05 22:56:00,79.8,63.7,29.73,ESE,116,4.0,12.0,58,0.00,,SKC,0.00,VWS V14.01,2013-07-06 03:56:00,
2013-07-05 23:01:00,79.7,63.6,29.73,East,98,5.0,8.0,58,0.00,,SKC,0.00,VWS V14.01,2013-07-06 04:01:00,
2013-07-05 23:06:00,79.5,63.4,29.73,ESE,110,0.0,9.0,58,0.00,,SKC,0.00,VWS V14.01,2013-07-06 04:06:00,
2013-07-05 23:11:00,79.4,63.3,29.72,ESE,115,4.0,9.0,58,0.00,,SKC,0.00,VWS V14.01,2013-07-06 04:11:00,
2013-07-05 23:16:00,79.3,63.7,29.72,ESE,104,6.0,9.0,59,0.00,,SKC,0.00,VWS V14.01,2013-07-06 04:16:00,
2013-07-05 23:21:00,79.2,63.7,29.73,ESE,106,0.0,9.0,59,0.00,,SKC,0.00,VWS V14.01,2013-07-06 04:21:00,
2013-07-05 23:26:00,79.2,63.7,29.73,ESE,109,5.0,9.0,59,0.00,,SKC,0.00,VWS V14.01,2013-07-06 04:26:00,
2013-07-05 23:31:00,79.0,63.9,29.73,ESE,107,4.0,6.0,60,0.00,,SKC,0.00,VWS V14.01,2013-07-06 04:31:00,
2013-07-05 23:36:00,79.0,63.9,29.74,ESE,113,0.0,7.0,60,0.00,,SKC,0.00,VWS V14.01,2013-07-06 04:36:00,
2013-07-05 23:41:00,78.9,63.8,29.74,East,82,0.0,12.0,60,0.00,,SKC,0.00,VWS V14.01,2013-07-06 04:41:00,
2013-07-05 23:46:00,78.8,63.8,29.74,ESE,107,2.0,12.0,60,0.00,,SKC,0.00,VWS V14.01,2013-07-06 04:46:00,
2013-07-05 23:51:00,78.8,63.8,29.74,East,101,0.0,12.0,60,0.00,,SKC,0.00,VWS V14.01,2013-07-06 04:51:00,
2013-07-05 23:56:00,78.7,64.1,29.74,NE,35,1.0,12.0,61,0.00,,SKC,0.00,VWS V14.01,2013-07-06 04:56:00,